Los Alamos, NM

1:56 AM MDT on September 26, 2017 (GMT -0600)
Los Alamos

Weather History for KLAM - March, 2014

Change the Weather History Date:

Friday, March 7, 2014

  Actual Average Record
Temperature  
Mean Temperature 44 °F -  
Max Temperature 53 °F 49 °F 65 °F (1972)
Min Temperature 36 °F 27 °F 12 °F (1971)
Degree Days  
Heating Degree Days 20    
Moisture  
Dew Point 16 °F    
Average Humidity 32    
Maximum Humidity 62    
Minimum Humidity 17    
Precipitation  
Precipitation 0.00 in - - ()
Sea Level Pressure  
Sea Level Pressure 29.95 in    
Wind  
Wind Speed 7 mph (West)    
Max Wind Speed 20 mph    
Max Gust Speed 28 mph    
Visibility 10 miles    
Events      
Averages and records for this station are not official NWS values.
T = Trace of Precipitation, MM = Missing Value Source: NWS Daily Summary

Daily Weather History Graph

Daily Weather History Graph

Search for Another Location

Airport or City:

Trip Planner

Search our weather history database for the weather conditions in past years. The results will help you decide how hot, cold, wet, or windy it might be!

Date:

Astronomy

Mar. 07, 2014 Rise Set
Actual Time 6:26 AM MST 6:05 PM MST
Civil Twilight 6:01 AM MST 6:31 PM MST
Nautical Twilight 5:31 AM MST 7:00 PM MST
Astronomical Twilight 5:02 AM MST 7:30 PM MST
Moon 10:33 AM MST (3/7) 12:01 AM MST (3/7)
Length of Visible Light 12h 29m
Length of Day
11h 38m
Waxing Crescent, 42% of the Moon is Illuminated
Mar 7
Waxing Crescent
Mar 8
First Quarter
Mar 16
Full
Mar 23
Last Quarter
Mar 30
New

Hourly Weather History & Observations

Time (MST) Temp. Windchill Dew Point Humidity Pressure Visibility Wind Dir Wind Speed Gust Speed Precip Events Conditions
12:15 AM 48.2 °F - 14.5 °F 26% 30.00 in 10.0 mi West 8.1 mph - N/A   Overcast
12:35 AM 47.3 °F - 16.5 °F 29% 29.99 in 10.0 mi WSW 3.5 mph - N/A   Scattered Clouds
12:55 AM 47.5 °F - 16.3 °F 29% 29.99 in 10.0 mi SW 4.6 mph - N/A   Clear
1:15 AM 46.6 °F - 16.9 °F 31% 29.99 in 10.0 mi SW 6.9 mph - N/A   Clear
1:35 AM 47.3 °F - 15.6 °F 28% 29.98 in 10.0 mi WSW 8.1 mph - N/A   Clear
1:55 AM 46.6 °F - 15.6 °F 29% 29.97 in 10.0 mi SW 6.9 mph - N/A   Clear
2:15 AM 46.4 °F 42.9 °F 15.6 °F 29% 29.98 in 10.0 mi WSW 6.9 mph - N/A   Scattered Clouds
2:35 AM 46.8 °F - 14.7 °F 28% 29.98 in 10.0 mi SW 4.6 mph - N/A   Mostly Cloudy
2:55 AM 47.8 °F - 13.1 °F 25% 29.97 in 10.0 mi WSW 4.6 mph - N/A   Overcast
3:15 AM 47.8 °F - 12.7 °F 24% 29.95 in 10.0 mi Calm Calm - N/A   Scattered Clouds
3:35 AM 44.8 °F 41.6 °F 16.2 °F 32% 29.96 in 10.0 mi SW 5.8 mph - N/A   Scattered Clouds
3:55 AM 44.4 °F 42.0 °F 15.6 °F 31% 29.96 in 10.0 mi SW 4.6 mph - N/A   Scattered Clouds
4:15 AM 45.0 °F 41.2 °F 14.9 °F 30% 29.95 in 10.0 mi West 6.9 mph - N/A   Clear
4:35 AM 46.2 °F 41.7 °F 13.5 °F 27% 29.96 in 10.0 mi West 9.2 mph - N/A   Clear
4:55 AM 45.9 °F 41.7 °F 14.0 °F 28% 29.95 in 10.0 mi SSW 8.1 mph - N/A   Clear
5:15 AM 45.7 °F 40.6 °F 14.0 °F 28% 29.95 in 10.0 mi West 10.4 mph 17.3 mph N/A   Clear
5:35 AM 44.8 °F 39.4 °F 14.9 °F 30% 29.95 in 10.0 mi WSW 10.4 mph - N/A   Clear
5:55 AM 45.0 °F 39.7 °F 14.0 °F 29% 29.94 in 10.0 mi West 10.4 mph - N/A   Clear
6:15 AM 44.8 °F 39.4 °F 14.0 °F 29% 29.94 in 10.0 mi West 10.4 mph - N/A   Clear
6:35 AM 45.9 °F 42.9 °F 12.9 °F 27% 29.94 in 10.0 mi West 5.8 mph - N/A   Clear
6:55 AM 40.6 °F - 17.2 °F 39% 29.93 in 10.0 mi Calm Calm - N/A   Clear
7:15 AM 40.3 °F - 18.0 °F 41% 29.94 in 10.0 mi Calm Calm - N/A   Clear
7:35 AM 40.1 °F - 18.9 °F 43% 29.94 in 10.0 mi Calm Calm - N/A   Clear
7:55 AM 40.6 °F - 19.4 °F 43% 29.95 in 10.0 mi Calm Calm - N/A   Clear
8:15 AM 44.1 °F - 17.4 °F 34% 29.94 in 10.0 mi Calm Calm - N/A   Clear
8:35 AM 46.9 °F - 14.9 °F 28% 29.95 in 10.0 mi WSW 11.5 mph - N/A   Clear
8:55 AM 48.0 °F - 14.0 °F 26% 29.94 in 10.0 mi West 6.9 mph - N/A   Clear
9:15 AM 48.2 °F - 14.9 °F 26% 29.94 in 10.0 mi West 13.8 mph 18.4 mph N/A   Clear
9:35 AM 49.1 °F - 14.7 °F 25% 29.94 in 10.0 mi West 10.4 mph 17.3 mph N/A   Clear
9:55 AM 47.5 °F - 21.9 °F 36% 29.94 in 10.0 mi Calm Calm - N/A   Clear
10:15 AM 52.7 °F - 18.3 °F 26% 29.93 in 10.0 mi NW 5.8 mph - N/A   Clear
10:35 AM 47.8 °F - 22.3 °F 37% 29.93 in 10.0 mi East 5.8 mph - N/A   Scattered Clouds
10:55 AM 47.3 °F - 23.0 °F 38% 29.93 in 10.0 mi East 4.6 mph - N/A   Mostly Cloudy
11:15 AM 49.1 °F - 23.0 °F 36% 29.93 in 10.0 mi North 3.5 mph - N/A   Overcast
11:35 AM 50.2 °F - 21.6 °F 33% 29.93 in 10.0 mi West 8.1 mph - N/A   Scattered Clouds
11:55 AM 50.7 °F - 20.7 °F 31% 29.93 in 10.0 mi WSW 8.1 mph - N/A   Mostly Cloudy
12:15 PM 50.5 °F - 20.8 °F 31% 29.93 in 10.0 mi NW 3.5 mph - N/A   Overcast
12:35 PM 49.8 °F - 24.8 °F 38% 29.93 in 10.0 mi SW 10.4 mph 20.7 mph N/A   Overcast
12:55 PM 52.0 °F - 24.4 °F 34% 29.93 in 10.0 mi WNW 10.4 mph 18.4 mph N/A   Mostly Cloudy
1:15 PM 51.1 °F - 21.6 °F 31% 29.92 in 10.0 mi West 15.0 mph 20.7 mph N/A   Overcast
1:30 PM 50.9 °F - 20.5 °F 30% 29.91 in 10.0 mi WSW 11.5 mph 24.2 mph N/A   Mostly Cloudy
1:55 PM 49.5 °F - 20.8 °F 32% 29.92 in 10.0 mi West 16.1 mph 27.6 mph N/A   Mostly Cloudy
2:15 PM 50.0 °F - 21.7 °F 33% 29.91 in 10.0 mi West 8.1 mph - N/A   Mostly Cloudy
2:35 PM 51.3 °F - 21.0 °F 31% 29.90 in 10.0 mi SW 3.5 mph - N/A   Scattered Clouds
2:55 PM 51.8 °F - 16.3 °F 25% 29.91 in 10.0 mi West 9.2 mph 27.6 mph N/A   Mostly Cloudy
3:15 PM 52.2 °F - 12.7 °F 21% 29.91 in 10.0 mi WNW 5.8 mph - N/A   Overcast
3:35 PM 53.1 °F - 9.5 °F 17% 29.90 in 10.0 mi WSW 9.2 mph 25.3 mph N/A   Scattered Clouds
3:55 PM 53.6 °F - 10.8 °F 18% 29.90 in 10.0 mi WNW 3.5 mph 21.9 mph N/A   Mostly Cloudy
4:15 PM 50.0 °F - 10.2 °F 20% 29.91 in 10.0 mi West 17.3 mph 25.3 mph N/A   Overcast
4:35 PM 51.6 °F - 11.1 °F 20% 29.91 in 10.0 mi West 15.0 mph 24.2 mph N/A   Mostly Cloudy
4:55 PM 49.1 °F - 9.3 °F 20% 29.93 in 10.0 mi West 17.3 mph 23.0 mph N/A   Scattered Clouds
5:15 PM 47.1 °F - 7.9 °F 20% 29.93 in 10.0 mi West 19.6 mph 25.3 mph N/A   Clear
5:35 PM 47.3 °F - 9.9 °F 22% 29.93 in 10.0 mi WSW 19.6 mph 27.6 mph N/A   Clear
5:55 PM 45.1 °F 39.5 °F 12.6 °F 27% 29.94 in 10.0 mi West 11.5 mph 20.7 mph N/A   Clear
6:15 PM 44.1 °F 41.5 °F 15.3 °F 31% 29.95 in 10.0 mi SW 4.6 mph - N/A   Scattered Clouds
6:35 PM 44.1 °F - 15.3 °F 31% 29.96 in 10.0 mi Calm Calm - N/A   Scattered Clouds
6:55 PM 43.3 °F 39.9 °F 15.6 °F 33% 29.96 in 10.0 mi WSW 5.8 mph - N/A   Clear
7:15 PM 43.0 °F - 14.7 °F 32% 29.97 in 10.0 mi Calm Calm - N/A   Clear
7:35 PM 42.4 °F 37.0 °F 13.5 °F 31% 29.98 in 10.0 mi West 9.2 mph 16.1 mph N/A   Clear
7:55 PM 42.6 °F 37.8 °F 9.1 °F 25% 29.99 in 10.0 mi WNW 8.1 mph 18.4 mph N/A   Clear
8:15 PM 42.3 °F 37.3 °F 8.6 °F 25% 29.99 in 10.0 mi NW 8.1 mph 16.1 mph N/A   Clear
8:35 PM 42.3 °F 35.5 °F 8.6 °F 25% 29.99 in 10.0 mi WNW 12.7 mph - N/A   Clear
8:55 PM 40.8 °F 35.6 °F 10.9 °F 29% 29.99 in 10.0 mi NW 8.1 mph - N/A   Clear
9:15 PM 41.0 °F 35.2 °F 11.5 °F 30% 29.99 in 10.0 mi West 9.2 mph - N/A   Clear
9:35 PM 38.7 °F - 14.7 °F 38% 30.00 in 10.0 mi Calm Calm - N/A   Clear
9:55 PM 38.3 °F 33.2 °F 16.2 °F 41% 30.00 in 10.0 mi NE 6.9 mph - N/A   Clear
10:15 PM 37.2 °F 31.9 °F 19.6 °F 49% 30.00 in 10.0 mi NNE 6.9 mph - N/A   Clear
10:35 PM 36.7 °F 31.2 °F 20.8 °F 53% 30.01 in 10.0 mi ENE 6.9 mph - N/A   Clear
10:55 PM 36.5 °F 27.8 °F 22.1 °F 56% 29.99 in 10.0 mi NNW 13.8 mph 18.4 mph N/A   Clear
11:15 PM 36.1 °F 30.6 °F 23.0 °F 59% 30.00 in 10.0 mi North 6.9 mph - N/A   Clear
11:35 PM 36.0 °F 29.6 °F 24.1 °F 62% 30.00 in 10.0 mi NE 8.1 mph 16.1 mph N/A   Clear
11:55 PM 36.5 °F 29.2 °F 24.6 °F 62% 30.02 in 10.0 mi North 10.4 mph 16.1 mph N/A   Clear